Location: Cossonay
(46.5833°N, 6.4167°E)
Time: 21:22:40
(UTC+00:00)

CBERS-1 - Pass Details

Date: 07 October 2020
Orbit: 770 x 777 km, 98.6° (Epoch: 22 October)

Event Time Altitude Azimuth Distance (km) Brightness Sun altitude
Rises 03:23:12 0° 2° (N) 3,261 7.5 -24.3°
Reaches altitude 10° 03:26:03 10° 346° (NNW) 2,330 6.5 -23.8°
Enters shadow 03:28:00 17° 326° (NW) 1,876 5.8 -23.5°
